Location: Newark
(21.1200°N, 73.4000°E)
Time: 05:50:43
(UTC+00:00)

Courier 1B Rocket - Pass Details

Date: 20 January 2020
Orbit: 920 x 1202 km, 28.2° (Epoch: 17 February)

Event Time Altitude Azimuth Distance (km) Brightness Sun altitude
Rises 14:18:48 0° 287° (WNW) 3,547 8.9 -20.9°
Reaches altitude 10° 14:21:25 10° 283° (WNW) 2,603 8.1 -21.5°
Maximum altitude 14:27:31 59° 205° (SSW) 1,062 5.3 -22.8°
Enters shadow 14:31:01 27° 136° (SE) 1,740 6.0 -23.6°
Drops below altitude 10° 14:33:49 10° 127° (SE) 2,683 - -24.3°
Sets 14:36:34 0° 123° (ESE) 3,664 - -24.9°
